Starlink 2395

operational
NORAD ID: 47814 Int'l Des: 2021-018 Owner: SPXS Country: US Constellation: starlink
LEOCIRCULARSTARLINK_TYPE

Starlink 2395について

説明を読み込み中...

リアルタイム位置

3D地球を読み込み中...

次回通過

高度履歴

Altitude vs Time

uPlot chart will show altitude changes over time

軌道要素

1 47814U 21018AD 25348.76201671 .00000542 00000-0 55312-4 0 9999
2 47814 53.0557 272.8753 0001973 98.3478 261.7735 15.06397086263854
Epoch: Dec 14, 2025 • Age: 28 hours

現在のステータス

高度 549.2 km
速度 7.59 km/s
衛星直下点 -6.84°S, 35.12°E
打ち上げ日 Mar 11, 2021
運用期間 4.7 years
タイプ internet

技術仕様

分類 Payload
質量 260.00 kg
乾燥質量 248.00 kg
総質量 260.00 kg
長さ 0.20 m
直径 2.80 m
スパン 9.00 m
形状 Box + pan
製造者 SPXS
バスタイプ Starlink
フェーズステータス In Orbit
所有者/国 SPXS/US

大規模コンステレーション

Loading constellations...